CZ-3C DEB

基本信息
目录编号:
39350
目录名称:
CZ-3C DEB
国际标识:
2010-057Q
轨道中心:
EARTH
物体状态:
在轨
发射日期:
2010-10-31 UTC
轨道信息
数据来源: 国际轨道数据
星历时间: 2026-07-03T01:53:47+0800
半长轴: 24753.374km
偏心率: 0.7206844
轨道倾角: 20.393°
近地点辐角: 277.325°
升交点赤经: 38.622°
平近点角: 347.868°
近地点: 535.866km
远地点: 36214.608km
周期: 645.968分钟
每日圈数: 2.229211
详细信息
发射场:
XSC
轨道高度:
LEO
数据来源:
AOE Integration Group
参考系:
TEME
时间系统:
UTC
历元类型:
SGP4
2D轨道图
3D轨道图
轨道高度分析图
轨道倾角分析图
轨道综合分析图
查看轨道综合分析图